Location: Peach Mountain Observatory
(42.3967°N, 83.9367°W)
Time: 18:03:46
(UTC-05:00)

S-56A Canister/Altair - Pass Details

Date: 24 January 2020
Orbit: 633 x 2499 km, 38.9° (Epoch: 19 February)

Event Time Altitude Azimuth Distance (km) Brightness Sun altitude
Rises 22:04:33 0° 252° (WSW) 3,737 11.5 -48.5°
Enters shadow 22:06:27 - 250° (WSW) 2,990 10.9 -48.8°
Reaches altitude 10° 22:07:35 10° 248° (WSW) 2,548 - -49.0°
Maximum altitude 22:13:07 53° 172° (S) 876 - -49.9°
Drops below altitude 10° 22:17:31 10° 96° (E) 2,038 - -50.7°
Sets 22:19:43 0° 91° (E) 2,918 - -51.1°
